Content
SEND FEEDBACK

Daily
Averages
Monthly
Summary
United Kingdom

BEVERLEY, ENGLAND


Home > Europe > United Kingdom > England
Elevation: 29 feet     Latitude: 53 52N     Longitude: 000 25W

WEATHER
 
SELECT A DAY
Number of Records: 57,381;   Date Range: 6/19/04 - 7/26/14
 
SHARE

PRINT THIS DATA

[ ← Previous Day ]
WEATHER ALMANAC - OCTOBER 5, 2013
[ Next Day → ]
[ °C ]   °F
Weather ElementAverageHighLow
Temperature60.1 °F62.6 °F (9:20 am)53.6 °F (11:50 pm)
Dewpoint51.6 °F55.4 °F (2:20 am)46.4 °F (1:50 pm)
Humidity74.3 %88 % (2:20 am)55 % (1:50 pm)
Barometer30.08 in30.21 in (9:20 pm)29.92 in (12:50 am)
Wind Speed8.8 mph15 mph (1:20 pm)
Weather ElementAverage
Visibility6.2 mi
Wind DirectionWSW (248.5 °)

Weather ElementTotal
Precipitation---
Heating Degree Days6.9 (Base 65)
Growing Degree Days8.1 (Base 50)
Averaged from 46 records on October 5, 2013
WEATHER CONDITIONS BREAKOUT
WIND DIRECTION BREAKOUT
WEATHER BY HOUR - OCTOBER 5, 2013
[ °C ]   °F
Local TimeTemperatureDewpointHumidityBarometerVisibilityWind DirectionWind SpeedGust SpeedPrecipitationEventsConditions
12:50 AM59.0 °F53.6 °F82 %29.92 in6.2 miSW (230°)6.9 mphOvercast
1:20 AM59.0 °F53.6 °F82 %29.92 in6.2 miWSW (240°)8.1 mphMostly Cloudy
1:50 AM59.0 °F53.6 °F82 %29.92 in6.2 miWSW (240°)6.9 mphOvercast
2:20 AM59.0 °F55.4 °F88 %29.92 in6.2 miWSW (240°)9.2 mphMostly Cloudy
2:50 AM59.0 °F55.4 °F88 %29.92 in6.2 miWSW (240°)9.2 mphMostly Cloudy
3:20 AM59.0 °F55.4 °F88 %29.95 in6.2 miSW (230°)9.2 mphMostly Cloudy
3:50 AM59.0 °F55.4 °F88 %29.95 in6.2 miSW (230°)10.4 mphMostly Cloudy
4:20 AM59.0 °F55.4 °F88 %29.95 in6.2 miWSW (240°)10.4 mphOvercast
4:50 AM59.0 °F55.4 °F88 %29.95 in6.2 miWSW (240°)9.2 mphOvercast
5:20 AM59.0 °F55.4 °F88 %29.98 in6.2 miWSW (240°)9.2 mphOvercast
5:50 AM59.0 °F55.4 °F88 %29.98 in5.0 miWest (260°)4.6 mphMostly Cloudy
6:20 AM59.0 °F55.4 °F88 %29.98 in6.2 miWSW (250°)5.8 mphMostly Cloudy
6:50 AM60.8 °F55.4 °F82 %30.01 in6.2 miWSW (250°)5.8 mphMostly Cloudy
7:20 AM59.0 °F55.4 °F88 %30.01 in6.2 miWest (260°)5.8 mphMostly Cloudy
7:50 AM59.0 °F55.4 °F88 %30.01 in6.2 miWSW (250°)5.8 mphMostly Cloudy
8:20 AM59.0 °F55.4 °F88 %30.04 in6.2 miWest (260°)6.9 mphMostly Cloudy
8:50 AM59.0 °F55.4 °F88 %30.04 in6.2 miWest (260°)6.9 mphScattered Clouds
9:20 AM62.6 °F53.6 °F72 %30.06 in6.2 miWest (270°)9.2 mphScattered Clouds
9:50 AM62.6 °F55.4 °F77 %30.06 in6.2 miWest (270°)9.2 mphScattered Clouds
10:20 AM62.6 °F53.6 °F72 %30.09 in6.2 miWest (260°)9.2 mphScattered Clouds
10:50 AM62.6 °F51.8 °F68 %30.09 in6.2 miWest (270°)11.5 mphScattered Clouds
11:20 AM62.6 °F50.0 °F63 %30.09 in6.2 miWest (280°)12.7 mphScattered Clouds
11:50 AM62.6 °F50.0 °F63 %30.09 in6.2 miWest (280°)12.7 mphPartly Cloudy
12:20 PM62.6 °F50.0 °F63 %30.12 in6.2 miWest (260°)13.8 mphScattered Clouds
12:50 PM62.6 °F50.0 °F63 %30.12 in6.2 miWest (280°)13.8 mphScattered Clouds
1:20 PM62.6 °F48.2 °F59 %30.12 in6.2 miWest (280°)15.0 mphScattered Clouds
1:50 PM62.6 °F46.4 °F55 %30.12 in6.2 miWNW (290°)13.8 mphScattered Clouds
2:20 PM62.6 °F46.4 °F55 %30.12 in6.2 miWest (280°)12.7 mphScattered Clouds
2:50 PM62.6 °F46.4 °F55 %30.12 in6.2 miWest (270°)11.5 mphMostly Cloudy
3:20 PM62.6 °F46.4 °F55 %30.15 in6.2 miWest (270°)11.5 mphMostly Cloudy
3:50 PM62.6 °F46.4 °F55 %30.15 in6.2 miWest (280°)11.5 mphMostly Cloudy
4:20 PM62.6 °F48.2 °F59 %30.15 in6.2 miWest (280°)8.1 mphMostly Cloudy
4:50 PM62.6 °F48.2 °F59 %30.15 in6.2 miWest (270°)8.1 mphMostly Cloudy
5:20 PM62.6 °F48.2 °F59 %30.15 in6.2 miWest (260°)5.8 mphMostly Cloudy
5:50 PM62.6 °F48.2 °F59 %30.15 in6.2 miWSW (240°)8.1 mphMostly Cloudy
6:20 PM60.8 °F50.0 °F68 %30.18 in6.2 miSW (230°)8.1 mphMostly Cloudy
6:50 PM60.8 °F50.0 °F68 %30.18 in6.2 miSW (230°)6.9 mphMostly Cloudy
7:20 PM60.8 °F50.0 °F68 %30.18 in6.2 miSSW (210°)6.9 mphMostly Cloudy
8:20 PM59.0 °F50.0 °F72 %30.18 in6.2 miSSW (210°)6.9 mphScattered Clouds
8:50 PM55.4 °F48.2 °F77 %30.18 in6.2 miSSW (210°)8.1 mphPartly Cloudy
9:20 PM55.4 °F50.0 °F82 %30.21 in6.2 miSW (220°)5.8 mphMostly Cloudy
9:50 PM57.2 °F50.0 °F77 %30.21 in6.2 miSW (220°)6.9 mphOvercast
10:20 PM57.2 °F50.0 °F77 %30.21 in6.2 miSW (220°)8.1 mphMostly Cloudy
10:50 PM57.2 °F50.0 °F77 %30.21 in6.2 miSSW (210°)6.9 mphMostly Cloudy
11:20 PM55.4 °F50.0 °F82 %30.21 in6.2 miSSW (210°)6.9 mphScattered Clouds
11:50 PM53.6 °F50.0 °F88 %30.21 in6.2 miSSW (210°)6.9 mph
Hourly data recorded from EGNJ, located miles away from Beverley, England







STORIES FROM OUR PARTNERS